DateTimeUTC,F1_A11,F1_S11,BsB_S11,BsG_S11,BsR_S11,BbsB_S11,BbsG_S11,BbsR_S11,BaB_A11,BaG_A11,BaR_A11,Tu_S11,T_S11,Uu_S11,U_S11,P_S11,T1_A11
2021-09-09T12:00:00Z,00000200,21000000,,,,,,,0000.55,0000.73,0000.39,18.3,25.0,,00.0,0661.1,31.0
2021-09-09T12:01:00Z,00000200,21000000,,,,,,,0000.28,0000.16,0000.06,18.3,25.0,,00.0,0661.1,31.0
2021-09-09T12:02:00Z,00000200,21000000,,,,,,,0000.23,0000.25,0000.20,18.4,25.0,,00.0,0661.1,31.0
2021-09-09T12:03:00Z,00000200,61000000,,,,,,,-000.01,-000.15,-000.26,18.4,25.1,,00.0,0661.1,31.0
2021-09-09T12:04:00Z,00000200,41000000,0000.55,0000.25,0000.29,0000.29,0000.09,0000.20,-000.04,0000.24,0000.38,18.8,25.0,,00.0,0662.1,31.0
2021-09-09T12:05:00Z,00000200,01000000,0001.02,0000.82,0000.13,0000.21,0000.13,-000.01,0005.70,0004.69,0003.54,18.8,25.0,,00.0,0662.1,31.0
2021-09-09T12:06:00Z,00000200,01000000,0000.77,0000.69,0000.43,0000.64,0000.26,0000.20,0014.77,0013.43,0010.26,18.7,25.0,,00.0,0662.1,31.0
2021-09-09T12:07:00Z,00000200,01000000,0000.32,0000.89,-000.00,0000.51,0000.09,-000.46,0004.67,0004.45,0003.50,18.7,24.9,,00.0,0662.0,31.0
2021-09-09T12:08:00Z,00000200,01000000,0000.62,0000.35,-000.25,-000.43,0000.14,-000.02,0003.28,0003.07,0002.40,18.7,24.9,,00.0,0661.9,31.0
2021-09-09T12:09:00Z,00000200,01000000,0000.18,0000.57,-000.09,0000.21,0000.40,0000.10,0000.53,0000.50,0000.43,18.6,24.9,,00.0,0661.9,31.0
2021-09-09T12:10:00Z,00000200,01000000,0001.00,0000.62,0000.04,0000.29,-000.08,0000.07,0007.23,0006.59,0004.57,18.6,24.9,,00.0,0662.0,31.0
2021-09-09T12:11:00Z,00000200,01000000,0000.42,0000.31,-000.12,0000.42,0000.00,0000.11,0002.04,0001.45,0001.61,18.5,24.8,,00.0,0662.0,31.0
2021-09-09T12:12:00Z,00000200,01000000,-000.04,0000.34,0000.07,0000.29,0000.14,-000.24,0001.45,0001.60,0001.10,18.5,24.8,,00.0,0662.0,31.0
2021-09-09T12:13:00Z,00000200,01000000,0000.14,0000.70,0000.05,0000.43,-000.01,-000.21,0002.24,0001.87,0001.29,18.6,24.8,,00.0,0662.0,31.0
2021-09-09T12:14:00Z,00000200,01000000,0000.60,0000.91,0000.59,0000.56,0000.02,0000.11,0001.60,0001.61,0001.34,18.6,24.9,,00.0,0662.0,31.0
2021-09-09T12:15:00Z,00000200,01000000,0002.11,0001.05,0000.82,0000.19,-000.02,0000.25,0001.43,0001.29,0001.17,18.7,24.9,,00.0,0662.0,31.0
2021-09-09T12:16:00Z,00000200,01000000,0001.36,0001.25,0000.62,0000.46,0000.25,0000.10,0003.03,0002.75,0001.88,18.8,25.0,,00.0,0662.0,31.0
2021-09-09T12:17:00Z,00000200,01000000,0001.47,0001.57,0000.77,0000.31,0000.43,0000.23,0002.01,0001.73,0001.60,18.8,25.0,,00.0,0662.0,31.0
2021-09-09T12:18:00Z,00000200,01000000,0001.22,0001.32,0000.97,0000.74,0000.46,0000.34,0001.94,0001.78,0000.98,18.8,25.0,,00.0,0662.0,31.0
2021-09-09T12:19:00Z,00000200,01000000,0003.44,0001.67,0000.71,0000.08,0000.12,0000.19,0005.88,0004.83,0003.99,18.8,25.0,,00.0,0662.0,31.0
2021-09-09T12:20:00Z,00000200,01000000,0001.91,0001.33,0000.97,0000.40,0000.18,0000.14,0008.35,0008.14,0005.87,18.8,24.9,,00.0,0662.0,31.0
2021-09-09T12:21:00Z,00000200,01000000,0002.28,0001.50,0000.89,0000.14,0000.40,0000.27,0009.65,0008.57,0006.67,18.7,24.9,,00.0,0662.0,31.0
2021-09-09T12:22:00Z,00000200,01000000,0001.89,0001.39,0000.93,0000.24,0000.18,0000.05,0004.52,0003.93,0002.99,18.7,24.9,00.0,00.0,0662.0,31.0
2021-09-09T12:23:00Z,00000200,01000000,0001.62,0001.90,0001.12,0000.76,0000.25,-000.11,-000.30,-000.32,0000.09,18.7,24.9,,00.0,0662.0,31.0
2021-09-09T12:24:00Z,00000200,01000000,0002.40,0001.64,0000.64,0000.35,0000.11,-000.20,0001.71,0002.14,0001.55,18.7,24.9,,00.0,0662.0,31.0
2021-09-09T12:25:00Z,00000200,01000000,0001.96,0001.77,0001.15,0000.32,0000.36,0000.18,0001.32,0001.20,0000.60,18.6,24.9,00.0,00.0,0662.0,31.0
2021-09-09T12:26:00Z,00000200,01000000,0001.04,0001.22,0000.94,0000.31,0000.20,0000.21,-000.97,-001.08,-000.60,18.6,24.9,00.0,00.0,0662.0,31.0
2021-09-09T12:27:00Z,00000200,01000000,0001.00,0001.18,0000.73,0000.24,0000.22,0000.04,0001.88,0001.26,0000.45,18.6,24.9,,00.0,0662.0,31.0
2021-09-09T12:28:00Z,00000200,01000000,0000.99,0001.06,0000.79,0000.09,-000.00,0000.12,-001.01,-000.42,0000.16,18.6,24.8,00.0,00.0,0662.0,31.0
2021-09-09T12:29:00Z,00000200,01000000,0000.70,0000.99,0000.59,0000.67,-000.07,-000.04,0000.02,-000.16,0000.24,18.7,24.9,,00.0,0662.0,31.0
2021-09-09T12:30:00Z,00000200,01000000,0000.65,0001.32,0000.66,0000.43,-000.05,0000.16,-000.13,0000.31,-000.40,18.8,24.9,,00.0,0662.0,31.0
2021-09-09T12:31:00Z,00000200,01000000,0001.58,0001.50,0000.83,0000.11,0000.06,0000.18,0000.28,-000.43,0000.18,18.8,25.0,,00.0,0662.0,31.0
2021-09-09T12:32:00Z,00000200,01000000,0002.27,0001.53,0000.88,0000.08,0000.21,0000.01,-000.58,-000.48,-000.43,18.8,25.0,,00.0,0662.0,31.0
2021-09-09T12:33:00Z,00000200,01000000,0002.04,0001.69,0000.82,0000.14,0000.50,-000.20,0000.19,0000.23,0000.25,18.8,25.0,,00.0,0662.1,31.0
2021-09-09T12:34:00Z,00000200,01000000,0001.65,0001.84,0000.93,-000.08,0000.57,-000.03,0000.09,0000.87,0000.31,18.8,25.0,,00.0,0662.1,31.0
2021-09-09T12:35:00Z,00000200,01000000,0001.23,0001.67,0000.78,0000.84,0000.30,0000.13,-000.07,-000.72,-000.34,18.8,25.0,,00.0,0662.1,31.0
2021-09-09T12:36:00Z,00000200,01000000,0002.49,0001.78,0001.34,0000.14,-000.05,0000.04,0000.22,0000.50,0000.26,18.7,24.9,,00.0,0662.1,31.0
2021-09-09T12:37:00Z,00000200,01000000,0001.91,0001.68,0000.74,0000.35,0000.13,0000.16,-000.15,0000.35,0000.12,18.7,24.9,,00.0,0662.1,31.0
2021-09-09T12:38:00Z,00000200,01000000,0001.86,0002.09,0000.88,-000.20,0000.29,0000.19,-000.13,-000.93,-000.10,18.7,24.9,,00.0,0662.1,31.0
2021-09-09T12:39:00Z,00000200,01000000,0001.98,0001.74,0001.00,0000.55,0000.24,0000.30,-000.11,-000.08,-000.31,18.6,24.9,,00.0,0662.1,31.0
2021-09-09T12:40:00Z,00000200,01000000,0001.42,0001.15,0000.84,0000.51,0000.13,0000.19,0000.02,0000.34,-000.24,18.6,24.9,,00.0,0662.1,31.0
2021-09-09T12:41:00Z,00000200,01000000,0001.10,0001.56,0000.94,0000.13,0000.34,-000.10,0000.26,0000.36,0000.51,18.6,24.9,,00.0,0662.1,31.0
2021-09-09T12:42:00Z,00000200,01000000,0002.10,0001.73,0001.15,0000.48,0000.06,-000.03,0000.66,0000.32,0000.80,18.6,24.9,,00.0,0662.1,31.0
2021-09-09T12:43:00Z,00000200,01000000,0001.55,0001.30,0001.16,-000.48,0000.37,0000.02,0000.56,0000.76,0000.63,18.6,24.9,,00.0,0662.1,31.0
2021-09-09T12:44:00Z,00000200,01000000,0001.44,0001.53,0000.85,-000.26,0000.38,-000.24,0000.40,0000.15,-000.29,18.6,24.9,,00.0,0662.1,31.0
2021-09-09T12:45:00Z,00000200,01000000,0001.65,0000.66,0000.65,0000.20,0000.22,0000.19,0000.35,0000.37,0000.36,18.7,24.9,,00.0,0662.1,31.0
2021-09-09T12:46:00Z,00000200,01000000,0001.24,0001.28,0000.61,0000.53,0000.22,0000.21,0000.46,0000.75,0000.21,18.7,24.9,,00.0,0662.2,31.0
2021-09-09T12:47:00Z,00000200,01000000,0001.48,0000.98,0000.76,0000.47,-000.13,0000.19,0000.62,0000.47,0000.51,18.6,24.9,,00.0,0662.1,31.0
2021-09-09T12:48:00Z,00000200,01000000,0001.70,0001.14,0000.36,0000.19,-000.05,-000.06,0000.66,0000.58,0000.52,18.6,24.9,,00.0,0662.1,31.0
2021-09-09T12:49:00Z,00000200,01000000,0001.25,0000.98,0000.54,0000.04,0000.15,-000.00,0000.90,0000.78,0000.68,18.6,24.9,,00.0,0662.2,31.0
2021-09-09T12:50:00Z,00000200,01000000,0001.36,0001.53,0000.55,-000.01,0000.10,0000.13,0000.88,0000.66,0000.50,18.6,24.9,,00.0,0662.2,31.0
2021-09-09T12:51:00Z,00000200,01000000,0000.71,0001.17,0000.80,0000.44,0000.23,0000.12,0001.04,0001.00,0000.88,18.5,24.9,,00.0,0662.2,31.0
2021-09-09T12:52:00Z,00000200,01000000,0000.48,0000.52,0000.41,0000.75,0000.00,0000.22,0001.70,0001.69,0001.07,18.5,24.8,,00.0,0662.2,31.0
2021-09-09T12:53:00Z,00000200,01000000,0000.09,0000.57,-000.01,-000.27,0000.31,-000.04,0000.84,0000.54,0000.47,18.5,24.8,,00.0,0662.2,31.0
2021-09-09T12:54:00Z,00000200,01000000,0001.99,0000.62,0000.23,0000.81,-000.00,0000.22,-000.82,-000.41,-000.55,18.4,24.8,,00.0,0662.2,31.0
2021-09-09T12:55:00Z,00000200,01000000,0000.56,0000.82,0000.22,0000.48,-000.11,-000.13,0000.37,0000.12,0000.29,18.4,24.8,,00.0,0662.2,31.0
2021-09-09T12:56:00Z,00000200,01000000,0000.12,0000.49,0000.48,0000.49,0000.19,0000.23,0000.24,0000.06,0000.00,18.4,24.8,,00.0,0662.1,31.0
2021-09-09T12:57:00Z,00000200,41000000,,,,,,,0002.87,0002.83,0001.94,18.4,24.8,,00.0,0662.1,31.0
2021-09-09T12:58:00Z,00000200,61000000,,,,,,,-000.64,-001.05,-000.55,18.1,24.9,,00.0,0661.2,31.0
2021-09-09T12:59:00Z,00000200,21000000,,,,,,,-000.43,-000.34,-000.12,18.1,25.0,,00.0,0661.2,31.0
